INTELSAT 29E DEB, 62723

Orbit data source: Space-Track

INTELSAT 29E DEB, 62723 is space debris in GEO originally from a launch on Wed, 27 Jan 2016 UTC launched from the French Guiana (FRGUI). Debris objects in space refer to the collection of defunct objects orbiting the Earth. Examples of debris include non-operational satellites, rocket bodies, and fragments generated from explosions, collisions, or faulty payload assembly.

Not visible in the next 10 days
INTELSAT 29E DEB details
Identifier
62723, 2016-004E
Orbit
GEO
Last TLE update2 weeks ago
Origin
Flag of USArianespace (US / ITSO)
ManufacturerUnknown
MissionSpacecraft
Bus & MotorUnknown
MassUnknown
Launch date (UTC)
2016-01-27 (9 years ago)
Launch vehicleUnknown
Launch site
French Guiana (FRGUI)
Object type
Payload
Rocket body
Debris
Shape & HBRUnknown
Radar Cross SectionRCS unknown

Expand to show TLE details & history

TLE from 2 weeks ago
0 INTELSAT 29E DEB
1 62723U 16004E   25020.88965250 -.00000067  00000-0  00000-0 0  9997
2 62723   5.2395  76.6590 0366036 304.2142  52.3626  1.00540857  1363
Epoch: 2025-01-20T21:21Z
Definitive object data (Epoch: 2025-01-20T21:21:05.975Z)
Latitude-0°
Longitude-4.12104°
Altitude34,812.426 km
Speed3.144 km/s
True Right ascension05h 06m 37s
True Declination0° 00' 00"
Sunlit
Object was in daylight at TLE epoch
Visualization TLE readout
Latitude-1.61353°
Longitude-21.90466°
Altitude34,475.088 km
Speed3.169 km/s
Apparent Right ascension04h 18m 58s
Apparent Declination-6° 53' 34"
Sunlit
Object is in daylight
Visualization observer readout
Local Sidereal Time20:13:02
Azimuth74.132° E
Elevation-28.339°
Doppler factor1
Orbital elements
Apogee altitude37,253.059 km
Perigee altitude34,171.729 km
Semi-major axis42,090.531 km
Eccentricity0.0366036
Inclination5.2395°
RAAN76.659°
Arg. of periapsis304.2142°
True anomaly55.77749°
Mean anomaly52.3626°
Eccentric anomaly54.0606°
Mean motion0.25134 °/min
BSTARUnknown
Orbital period1432.31 mins
Loading historical data...
62723 neighbors
Authenticating...
Loading maneuver chart data...
Loading historical data...
Loading historical data...
Loading historical data...
Loading historical data...
Loading historical data...
Loading historical data...
Loading historical data...

INTELSAT 29E DEB Visibility forecast

Observer location: undefined°, undefined

INTELSAT 29E DEB is not visible in the next 10 days
Span
Click to sort rows by Start time (UTC) header in descending order
Start Az.
Max El. time (UTC)
Max El. Az.
Max El.
End time (UTC)
End Az.
|